Theta_e
343 342 342 342 342 341 339 336 336 336 336 336 335 334 334 328 324 321 320 327 332 333 333 331 331 331 331 328 322 319 315 314 320 323 324 325 324 322 318 315 317 319 317
340 339 339 340 339 340 340 340 340 339 338 338 337 336 334 333 328 324 321 321 323 327 333 331 331 330 330 330 325 318 315 313 313 313 313 314 316 314 311 311 311 314 315
337 338 337 337 337 337 336 337 337 337 337 338 337 337 336 335 334 329 324 321 321 323 330 331 333 330 330 330 327 323 316 313 312 312 311 310 309 309 310 309 308 307 310
326 325 328 328 330 331 332 335 335 335 336 336 337 337 337 337 337 334 331 325 322 322 325 331 331 329 330 330 329 326 321 312 312 311 310 309 308 307 307 306 306 306 308
310 311 311 311 311 314 317 319 324 332 334 334 335 335 335 335 335 336 334 330 325 322 323 325 329 331 331 330 329 327 323 313 311 311 309 308 307 306 305 307 317 316 317
306 306 306 306 307 307 308 309 311 313 319 327 334 334 333 334 335 334 334 335 329 324 323 323 328 330 332 330 329 327 324 319 311 310 308 308 307 308 310 308 313 318 316
303 302 302 301 301 301 302 305 307 310 309 311 315 327 334 331 334 334 334 334 334 327 325 324 325 331 332 331 329 327 325 319 313 309 308 308 306 311 312 315 315 315 316
299 297 296 297 298 298 299 301 303 309 312 311 312 312 318 329 328 333 332 332 332 332 326 326 325 329 331 330 329 327 324 320 314 310 309 308 309 311 315 313 315 314 313
297 297 296 296 297 298 299 306 309 311 314 314 313 314 313 322 318 322 330 332 331 331 331 327 327 327 329 331 330 327 325 320 316 316 315 311 308 311 313 314 311 312 312
296 296 296 297 297 299 299 301 309 310 311 312 313 313 314 312 310 313 317 324 330 330 330 329 329 328 329 331 330 328 324 320 317 316 315 315 312 313 313 312 313 312 313
300 301 301 300 299 301 301 302 305 308 308 309 310 312 313 314 313 309 311 313 316 317 328 329 330 330 330 330 330 329 325 323 319 315 314 313 313 314 314 314 312 312 311
302 301 301 302 303 304 305 306 305 305 305 305 306 307 308 310 312 312 311 310 310 311 312 328 328 329 329 330 330 328 325 324 321 316 315 314 314 314 314 313 313 312 310
302 303 304 303 302 303 304 305 304 304 303 303 302 302 305 307 309 311 311 310 310 310 311 314 327 328 328 327 330 328 326 323 319 316 317 315 314 314 313 313 312 311 310
302 302 301 300 301 300 299 300 299 300 300 302 301 301 301 303 306 308 309 308 311 312 311 310 323 325 324 328 329 326 325 322 318 317 316 315 314 314 313 312 311 311 310
299 299 299 299 299 299 299 299 299 299 299 300 300 301 301 301 304 308 307 308 305 309 312 310 311 323 324 323 325 326 325 323 318 318 316 315 314 313 313 311 310 310 309
300 300 300 299 299 299 300 300 299 299 299 299 300 300 302 302 302 305 308 306 306 305 310 310 310 310 321 322 325 324 324 324 317 317 316 315 314 312 312 311 310 309 308
300 300 300 300 300 300 299 299 298 298 298 298 298 299 299 300 301 304 306 306 305 306 309 309 309 310 311 322 322 321 322 322 317 317 316 314 314 312 311 311 309 307 305
299 299 299 297 299 299 298 297 297 297 297 298 297 296 297 297 298 301 303 305 305 304 307 310 311 310 310 318 321 320 320 321 317 317 315 314 313 312 310 311 309 307 306
299 299 298 297 297 296 296 296 296 296 297 297 296 296 296 296 297 298 301 303 304 303 305 308 310 309 309 313 318 319 320 320 318 316 315 314 313 312 311 310 309 307 306
299 298 298 296 294 294 294 295 294 295 295 296 296 296 295 295 296 296 299 301 303 304 305 308 310 309 309 311 315 316 315 316 315 316 315 314 313 312 312 310 309 307 306
297 297 295 294 291 293 293 292 292 293 294 295 295 295 295 295 295 296 297 299 302 303 305 307 307 310 308 308 312 314 314 314 314 316 315 314 313 312 311 310 309 307 306
295 293 292 292 291 292 292 291 291 292 293 294 295 295 295 294 294 296 296 297 298 302 303 302 306 309 307 306 309 313 313 312 311 312 313 311 313 312 311 309 308 306 306
292 292 291 290 291 291 291 291 291 292 292 293 292 293 295 294 294 294 296 297 298 301 301 302 304 306 307 308 308 311 312 312 311 311 311 311 311 311 310 309 308 306 306
291 291 291 291 291 291 290 291 291 291 291 292 291 291 293 294 294 294 293 295 296 298 300 302 304 306 306 308 308 308 310 310 310 310 311 307 307 308 309 308 307 306 305
290 291 290 290 290 290 290 290 290 290 291 291 290 291 292 294 294 295 294 294 295 296 297 300 303 305 306 306 306 307 309 308 306 306 307 306 305 305 305 307 307 306 306
291 288 290 290 290 289 289 289 289 289 290 291 292 292 292 292 294 294 294 294 294 295 295 297 300 304 304 305 304 305 307 307 306 304 305 304 303 305 303 305 305 306 305
Wind_Speed
16 17 17 19 21 24 27 31 34 36 37 39 40 39 36 35 35 36 38 40 37 32 30 30 26 24 22 18 18 22 21 21 21 20 19 18 18 18 16 14 14 13 13
10 13 16 18 20 21 25 28 32 33 38 40 42 43 42 40 39 39 40 41 41 40 35 33 30 27 26 23 20 19 23 23 22 22 21 21 20 19 15 15 15 15 15
17 19 18 20 22 24 25 20 25 31 33 37 39 40 42 44 44 43 43 43 43 43 41 37 34 32 31 28 24 21 23 25 25 24 23 21 19 18 18 18 17 17 19
14 15 16 19 24 25 25 28 26 28 32 36 40 41 44 43 44 47 46 45 46 47 47 43 42 38 36 33 30 25 24 25 27 27 25 23 22 21 20 18 17 17 19
16 18 19 20 20 21 22 22 23 22 25 34 37 40 45 47 48 46 50 50 49 50 51 50 47 44 41 38 35 30 25 26 28 29 26 24 23 23 22 21 19 19 21
22 23 25 25 26 28 26 24 25 24 27 24 37 41 43 43 48 51 51 51 52 53 53 54 52 49 47 43 40 35 30 28 30 30 29 27 26 24 24 24 24 24 22
28 29 30 31 30 30 30 30 30 29 29 26 32 30 41 49 51 51 51 55 53 56 55 56 56 54 52 48 45 39 33 30 31 32 32 29 30 28 26 26 26 26 25
28 27 25 26 26 28 28 29 30 30 31 27 28 33 28 33 42 50 58 55 56 54 60 59 61 59 57 53 50 44 37 31 31 33 33 32 32 31 29 29 30 29 28
34 32 27 26 24 23 25 26 26 26 27 28 25 18 13 11 32 29 52 57 57 57 58 62 63 62 60 59 54 50 43 35 34 35 35 35 35 35 34 32 30 30 32
36 34 31 28 24 22 23 23 23 25 26 29 28 28 24 28 23 28 31 29 49 61 64 64 66 66 66 63 58 56 47 40 38 39 37 36 36 37 36 34 33 33 34
35 30 26 23 20 20 19 18 20 22 23 26 28 27 28 29 28 24 36 48 27 27 61 68 71 69 73 68 63 61 52 45 42 42 41 40 40 40 38 40 37 36 35
24 17 14 12 12 14 15 16 18 21 24 28 29 34 38 30 26 25 27 38 42 52 48 53 68 69 72 70 68 66 56 49 45 46 45 44 44 44 43 41 42 41 36
20 17 15 14 16 18 19 20 21 22 24 26 29 34 35 42 32 30 30 33 37 48 53 49 60 80 71 72 75 70 55 55 52 50 50 48 49 48 46 46 43 40 39
19 17 16 16 17 17 18 20 22 23 26 28 30 31 32 35 37 37 32 31 29 34 35 44 47 62 68 75 81 63 61 57 56 56 54 53 52 52 49 48 45 41 39
16 15 16 15 16 16 17 19 21 23 24 26 28 28 26 29 28 31 32 32 31 32 34 31 37 58 60 68 75 61 60 61 62 62 57 56 55 54 51 50 48 45 41
15 15 16 16 17 19 21 22 22 22 22 23 24 24 24 27 29 29 23 23 27 36 26 29 45 26 56 67 67 59 62 63 69 64 61 60 58 55 55 53 50 47 44
19 18 19 21 22 23 23 23 22 23 24 25 23 25 27 27 28 30 27 24 26 27 33 36 30 32 36 59 61 52 63 75 73 67 64 62 59 57 58 55 49 45 45
19 20 24 26 29 26 23 23 23 23 23 24 25 23 23 23 24 24 31 24 24 27 30 29 31 35 33 51 56 61 70 65 72 72 67 63 61 60 60 58 53 48 50
21 24 25 27 25 22 22 20 21 22 22 21 21 23 23 23 23 19 20 21 21 29 30 31 26 20 23 29 55 64 68 66 71 72 68 66 64 63 63 59 53 49 51
24 26 27 24 20 19 19 17 22 22 22 21 19 19 19 20 21 23 22 21 18 23 28 28 25 21 11 35 32 55 55 66 72 72 71 69 67 66 65 59 55 51 51
22 22 21 19 18 17 17 19 21 22 22 20 19 19 18 17 16 19 23 22 20 20 22 24 27 17 17 19 23 42 45 54 61 76 76 72 70 70 67 62 58 53 52
17 15 16 16 16 16 17 17 18 19 19 18 20 19 18 17 16 15 18 19 21 20 20 22 23 10 16 19 19 34 39 41 37 57 69 64 74 74 68 64 58 54 54
14 15 15 15 14 15 15 15 15 16 17 17 19 21 21 18 18 19 15 14 17 20 18 20 16 10 14 19 17 27 39 46 49 55 58 65 69 71 71 65 58 56 54
15 13 13 12 12 14 15 13 14 15 15 16 16 19 19 19 22 21 20 18 13 13 19 21 21 17 22 16 16 26 38 41 43 53 66 48 56 60 68 64 59 57 56
17 13 12 11 12 13 12 11 13 14 15 16 16 15 17 15 17 21 25 24 19 12 11 16 17 17 17 9 11 24 27 37 32 46 51 49 43 53 55 65 60 60 58
18 18 13 14 13 14 9 10 11 13 15 16 15 16 15 14 13 16 20 24 25 21 17 11 17 15 13 14 14 20 29 42 44 39 50 46 55 64 38 57 62 61 57
Wind_Direction
283 282 280 281 278 277 275 272 269 268 266 264 262 259 256 251 245 243 239 239 241 241 237 240 239 244 241 239 235 230 235 223 210 207 206 205 207 209 214 213 208 207 200
278 273 279 278 278 284 283 283 281 276 273 270 264 264 260 255 251 246 243 238 238 240 240 240 238 239 243 240 239 234 236 232 222 220 220 215 213 218 216 211 207 206 207
296 291 290 289 283 280 280 292 295 287 283 281 278 274 268 260 253 249 245 241 238 239 239 239 234 240 241 243 242 238 241 235 230 225 224 224 221 217 213 212 210 206 208
297 295 290 288 285 287 288 281 282 287 289 283 280 279 278 273 263 252 248 242 239 238 237 239 240 238 240 240 241 241 244 238 232 228 230 223 218 209 209 200 197 190 185
302 303 303 303 301 295 292 290 279 277 290 287 285 280 275 275 276 267 255 246 239 237 237 236 237 238 237 239 238 238 238 236 233 233 225 223 207 200 196 190 168 169 162
304 301 298 294 293 293 292 292 292 285 281 291 283 275 274 273 269 270 264 257 243 237 236 236 234 234 236 239 238 237 238 234 231 229 223 214 202 192 188 182 172 166 162
304 302 300 300 300 300 298 294 294 293 287 291 290 300 270 268 271 268 263 259 252 239 235 234 233 232 232 236 240 234 236 234 227 223 219 211 200 190 185 176 172 168 166
317 319 319 315 308 302 295 293 290 290 292 291 302 306 298 288 262 261 256 258 256 246 235 233 233 230 232 231 234 233 231 234 218 217 219 214 195 188 181 182 179 177 171
324 319 317 313 314 304 301 299 301 292 298 294 294 301 307 283 315 308 255 252 248 245 240 232 232 231 229 232 230 229 226 225 213 210 207 210 200 191 185 186 184 179 175
320 316 312 311 310 310 305 292 294 301 308 305 298 297 292 282 294 299 308 272 240 245 235 226 228 228 228 228 229 227 224 219 209 209 206 202 197 191 189 186 180 179 178
319 313 310 308 307 309 309 301 290 296 297 299 304 297 300 303 286 289 276 286 293 309 241 234 223 223 228 225 223 224 221 221 212 217 209 201 197 191 186 183 181 182 182
342 343 335 327 317 324 321 304 299 301 301 298 297 291 286 295 285 282 282 284 291 289 303 230 219 220 224 228 225 220 216 221 217 212 207 200 192 189 187 187 186 183 185
355 1 356 343 345 332 323 316 311 304 300 299 302 300 287 279 291 294 287 290 287 292 293 287 222 216 217 227 227 220 216 218 212 206 200 197 189 190 186 188 188 184 186
328 333 336 334 328 323 322 316 310 306 304 297 297 299 295 285 273 280 289 290 275 273 286 282 231 214 212 220 220 219 215 212 210 205 198 196 192 190 189 189 190 183 187
322 325 322 323 323 320 316 316 316 313 306 304 294 298 301 291 283 279 266 277 291 300 276 277 294 220 218 213 214 214 216 213 207 202 197 197 195 193 193 191 190 186 188
304 311 313 313 314 315 315 312 311 310 307 303 302 300 294 295 283 291 295 289 289 284 290 266 269 304 214 213 211 217 218 214 204 204 200 199 196 195 194 194 190 189 190
292 303 306 308 311 313 309 306 306 304 303 307 310 305 300 294 287 268 284 281 283 279 284 275 295 282 267 222 224 226 221 213 202 203 199 198 197 196 196 196 193 191 190
291 301 304 312 311 311 308 303 302 303 307 310 312 312 310 304 287 280 272 288 278 295 299 285 271 263 279 217 222 218 209 211 202 200 200 197 198 198 196 193 189 186 184
284 292 296 302 308 311 314 312 308 308 309 311 311 313 315 310 305 297 291 296 284 286 307 287 259 253 273 242 209 212 208 215 204 201 201 199 199 199 196 192 191 186 184
277 283 292 302 304 307 315 313 307 310 311 313 313 313 315 314 309 300 301 298 285 297 301 268 273 252 245 245 223 199 192 200 195 200 200 200 198 199 197 194 191 188 184
276 284 292 295 302 309 312 311 313 311 313 315 316 315 313 314 303 296 294 293 294 302 315 302 282 237 245 252 235 200 194 188 191 197 196 197 196 197 195 195 191 187 185
283 288 293 300 304 306 311 315 314 309 314 316 318 318 321 325 318 309 305 297 295 298 316 317 266 246 259 249 244 201 190 182 178 192 188 187 195 192 194 193 190 187 187
284 290 298 302 304 308 316 314 310 308 314 317 320 322 322 323 324 320 314 312 293 277 285 306 286 284 286 258 230 220 198 189 186 184 184 182 187 187 192 192 191 190 189
283 290 299 304 304 301 312 307 302 305 308 308 315 316 319 322 323 319 323 324 325 305 284 271 288 281 282 267 261 230 200 189 196 188 190 175 179 181 189 192 194 193 193
282 283 291 297 298 290 298 304 301 301 303 307 310 313 317 319 315 315 318 324 325 325 297 269 282 269 282 300 264 237 213 196 176 177 175 173 172 173 178 189 192 194 193
294 293 283 286 280 290 307 308 308 303 307 308 316 321 325 327 324 320 318 320 320 324 319 296 256 268 251 242 270 264 228 203 187 175 179 175 175 177 170 183 191 192 195